Date_Time,Julian_Date,Latitude,Longitude,Instrument_Depth,U,V,Speed,Direction
(yyyy-mm-dd hh:mn:ss UTC),(JD),(+ deg. North),(+ deg. East),(m),(cm/s),(cm/s),(cm/s),(deg True)
1982-03-02 19:00:00 UTC,2445031.291667,28.7317,-95.2428,0215,-1.82,-3.56,4.0000,207.0000
1982-03-02 19:30:00 UTC,2445031.312500,28.7317,-95.2428,0215,-1.63,-2.52,3.0000,213.0000
1982-03-02 20:00:00 UTC,2445031.333333,28.7317,-95.2428,0215,-0.62,-0.79,1.0000,218.0000
1982-03-02 20:30:00 UTC,2445031.354167,28.7317,-95.2428,0215,-0.00,-0.00,0.0000,234.0000
1982-03-02 21:00:00 UTC,2445031.375000,28.7317,-95.2428,0215,-0.00,-0.00,0.0000,260.0000
1982-03-02 21:30:00 UTC,2445031.395833,28.7317,-95.2428,0215,-0.00,-0.00,0.0000,210.0000
1982-03-02 22:00:00 UTC,2445031.416667,28.7317,-95.2428,0215,0.00,0.00,0.0000,10.0000
1982-03-02 22:30:00 UTC,2445031.437500,28.7317,-95.2428,0215,0.24,0.97,1.0000,14.0000
1982-03-02 23:00:00 UTC,2445031.458333,28.7317,-95.2428,0215,0.83,2.88,3.0000,16.0000
1982-03-02 23:30:00 UTC,2445031.479167,28.7317,-95.2428,0215,1.46,4.78,5.0000,17.0000
1982-03-03 00:00:00 UTC,2445031.500000,28.7317,-95.2428,0215,1.85,5.71,6.0000,18.0000
1982-03-03 00:30:00 UTC,2445031.520833,28.7317,-95.2428,0215,1.95,5.67,6.0000,19.0000
1982-03-03 01:00:00 UTC,2445031.541667,28.7317,-95.2428,0215,1.87,4.64,5.0000,22.0000
1982-03-03 01:30:00 UTC,2445031.562500,28.7317,-95.2428,0215,1.36,2.67,3.0000,27.0000
1982-03-03 02:00:00 UTC,2445031.583333,28.7317,-95.2428,0215,0.59,0.81,1.0000,36.0000
1982-03-03 02:30:00 UTC,2445031.604167,28.7317,-95.2428,0215,0.88,1.80,2.0000,26.0000
1982-03-03 03:00:00 UTC,2445031.625000,28.7317,-95.2428,0215,0.62,1.90,2.0000,18.0000
1982-03-03 03:30:00 UTC,2445031.645833,28.7317,-95.2428,0215,-0.02,-1.00,1.0000,181.0000
1982-03-03 04:00:00 UTC,2445031.666667,28.7317,-95.2428,0215,-0.70,-4.95,5.0000,188.0000
1982-03-03 04:30:00 UTC,2445031.687500,28.7317,-95.2428,0215,-1.22,-6.89,7.0000,190.0000
1982-03-03 05:00:00 UTC,2445031.708333,28.7317,-95.2428,0215,-1.39,-7.88,8.0000,190.0000
1982-03-03 05:30:00 UTC,2445031.729167,28.7317,-95.2428,0215,-0.84,-7.96,8.0000,186.0000
1982-03-03 06:00:00 UTC,2445031.750000,28.7317,-95.2428,0215,-0.14,-8.00,8.0000,181.0000
1982-03-03 06:30:00 UTC,2445031.770833,28.7317,-95.2428,0215,-0.63,-8.98,9.0000,184.0000
1982-03-03 07:00:00 UTC,2445031.791667,28.7317,-95.2428,0215,-2.08,-9.78,10.0000,192.0000
1982-03-03 07:30:00 UTC,2445031.812500,28.7317,-95.2428,0215,-3.09,-9.51,10.0000,198.0000
1982-03-03 08:00:00 UTC,2445031.833333,28.7317,-95.2428,0215,-2.93,-8.51,9.0000,199.0000
1982-03-03 08:30:00 UTC,2445031.854167,28.7317,-95.2428,0215,-2.60,-7.56,8.0000,199.0000
1982-03-03 09:00:00 UTC,2445031.875000,28.7317,-95.2428,0215,-2.39,-6.58,7.0000,200.0000
1982-03-03 09:30:00 UTC,2445031.895833,28.7317,-95.2428,0215,-1.46,-4.78,5.0000,197.0000
1982-03-03 10:00:00 UTC,2445031.916667,28.7317,-95.2428,0215,-0.90,-3.90,4.0000,193.0000
1982-03-03 10:30:00 UTC,2445031.937500,28.7317,-95.2428,0215,-0.90,-3.90,4.0000,193.0000
1982-03-03 11:00:00 UTC,2445031.958333,28.7317,-95.2428,0215,-0.52,-2.95,3.0000,190.0000
1982-03-03 11:30:00 UTC,2445031.979167,28.7317,-95.2428,0215,-0.66,-0.75,1.0000,221.0000
1982-03-03 12:00:00 UTC,2445032.000000,28.7317,-95.2428,0215,-0.65,1.89,2.0000,341.0000
1982-03-03 12:30:00 UTC,2445032.020833,28.7317,-95.2428,0215,-1.03,2.82,3.0000,340.0000
1982-03-03 13:00:00 UTC,2445032.041667,28.7317,-95.2428,0215,-1.63,3.65,4.0000,336.0000
1982-03-03 13:30:00 UTC,2445032.062500,28.7317,-95.2428,0215,-2.25,5.56,6.0000,338.0000
1982-03-03 14:00:00 UTC,2445032.083333,28.7317,-95.2428,0215,-1.93,6.73,7.0000,344.0000
1982-03-03 14:30:00 UTC,2445032.104167,28.7317,-95.2428,0215,-0.31,5.99,6.0000,357.0000
1982-03-03 15:00:00 UTC,2445032.125000,28.7317,-95.2428,0215,0.61,4.96,5.0000,7.0000
1982-03-03 15:30:00 UTC,2445032.145833,28.7317,-95.2428,0215,0.17,5.00,5.0000,2.0000
1982-03-03 16:00:00 UTC,2445032.166667,28.7317,-95.2428,0215,-0.26,4.99,5.0000,357.0000
1982-03-03 16:30:00 UTC,2445032.187500,28.7317,-95.2428,0215,-0.17,5.00,5.0000,358.0000
1982-03-03 17:00:00 UTC,2445032.208333,28.7317,-95.2428,0215,0.09,5.00,5.0000,1.0000
1982-03-03 17:30:00 UTC,2445032.229167,28.7317,-95.2428,0215,0.52,5.98,6.0000,5.0000
1982-03-03 18:00:00 UTC,2445032.250000,28.7317,-95.2428,0215,1.22,6.89,7.0000,10.0000
1982-03-03 18:30:00 UTC,2445032.270833,28.7317,-95.2428,0215,2.48,8.65,9.0000,16.0000
1982-03-03 19:00:00 UTC,2445032.291667,28.7317,-95.2428,0215,3.23,8.40,9.0000,21.0000
1982-03-03 19:30:00 UTC,2445032.312500,28.7317,-95.2428,0215,2.39,6.58,7.0000,20.0000
1982-03-03 20:00:00 UTC,2445032.333333,28.7317,-95.2428,0215,-0.62,2.93,3.0000,348.0000
1982-03-03 20:30:00 UTC,2445032.354167,28.7317,-95.2428,0215,-2.85,0.93,3.0000,288.0000
1982-03-03 21:00:00 UTC,2445032.375000,28.7317,-95.2428,0215,-1.58,1.23,2.0000,308.0000
1982-03-03 21:30:00 UTC,2445032.395833,28.7317,-95.2428,0215,-0.35,1.97,2.0000,350.0000
1982-03-03 22:00:00 UTC,2445032.416667,28.7317,-95.2428,0215,0.10,2.00,2.0000,3.0000
1982-03-03 22:30:00 UTC,2445032.437500,28.7317,-95.2428,0215,1.22,2.74,3.0000,24.0000
1982-03-03 23:00:00 UTC,2445032.458333,28.7317,-95.2428,0215,2.80,1.08,3.0000,69.0000
1982-03-03 23:30:00 UTC,2445032.479167,28.7317,-95.2428,0215,3.93,-0.76,4.0000,101.0000
1982-03-04 00:00:00 UTC,2445032.500000,28.7317,-95.2428,0215,2.99,-0.26,3.0000,95.0000
1982-03-04 00:30:00 UTC,2445032.520833,28.7317,-95.2428,0215,1.73,1.00,2.0000,60.0000
1982-03-04 01:00:00 UTC,2445032.541667,28.7317,-95.2428,0215,2.33,1.89,3.0000,51.0000
1982-03-04 01:30:00 UTC,2445032.562500,28.7317,-95.2428,0215,3.66,3.41,5.0000,47.0000
1982-03-04 02:00:00 UTC,2445032.583333,28.7317,-95.2428,0215,6.43,7.66,10.0000,40.0000
1982-03-04 02:30:00 UTC,2445032.604167,28.7317,-95.2428,0215,7.42,11.87,14.0000,32.0000
1982-03-04 03:00:00 UTC,2445032.625000,28.7317,-95.2428,0215,3.66,8.22,9.0000,24.0000
1982-03-04 03:30:00 UTC,2445032.645833,28.7317,-95.2428,0215,-0.98,-0.19,1.0000,259.0000
1982-03-04 04:00:00 UTC,2445032.666667,28.7317,-95.2428,0215,-2.18,-3.35,4.0000,213.0000
1982-03-04 04:30:00 UTC,2445032.687500,28.7317,-95.2428,0215,-2.12,-3.39,4.0000,212.0000
1982-03-04 05:00:00 UTC,2445032.708333,28.7317,-95.2428,0215,-2.11,-4.53,5.0000,205.0000
1982-03-04 05:30:00 UTC,2445032.729167,28.7317,-95.2428,0215,-2.27,-4.46,5.0000,207.0000
1982-03-04 06:00:00 UTC,2445032.750000,28.7317,-95.2428,0215,-2.72,-4.19,5.0000,213.0000
1982-03-04 06:30:00 UTC,2445032.770833,28.7317,-95.2428,0215,-2.03,-4.57,5.0000,204.0000
1982-03-04 07:00:00 UTC,2445032.791667,28.7317,-95.2428,0215,-1.57,-6.82,7.0000,193.0000
1982-03-04 07:30:00 UTC,2445032.812500,28.7317,-95.2428,0215,-1.39,-7.88,8.0000,190.0000
1982-03-04 08:00:00 UTC,2445032.833333,28.7317,-95.2428,0215,-1.66,-7.83,8.0000,192.0000
1982-03-04 08:30:00 UTC,2445032.854167,28.7317,-95.2428,0215,-2.28,-6.62,7.0000,199.0000
1982-03-04 09:00:00 UTC,2445032.875000,28.7317,-95.2428,0215,-2.11,-4.53,5.0000,205.0000
1982-03-04 09:30:00 UTC,2445032.895833,28.7317,-95.2428,0215,-1.17,-3.83,4.0000,197.0000
1982-03-04 10:00:00 UTC,2445032.916667,28.7317,-95.2428,0215,-0.28,-3.99,4.0000,184.0000
1982-03-04 10:30:00 UTC,2445032.937500,28.7317,-95.2428,0215,0.72,-1.87,2.0000,159.0000
1982-03-04 11:00:00 UTC,2445032.958333,28.7317,-95.2428,0215,1.75,-0.97,2.0000,119.0000
1982-03-04 11:30:00 UTC,2445032.979167,28.7317,-95.2428,0215,2.00,-0.03,2.0000,91.0000
1982-03-04 12:00:00 UTC,2445033.000000,28.7317,-95.2428,0215,2.93,0.62,3.0000,78.0000
1982-03-04 12:30:00 UTC,2445033.020833,28.7317,-95.2428,0215,2.99,-0.26,3.0000,95.0000
1982-03-04 13:00:00 UTC,2445033.041667,28.7317,-95.2428,0215,3.80,-1.24,4.0000,108.0000
1982-03-04 13:30:00 UTC,2445033.062500,28.7317,-95.2428,0215,3.91,-0.83,4.0000,102.0000
1982-03-04 14:00:00 UTC,2445033.083333,28.7317,-95.2428,0215,4.00,0.00,4.0000,90.0000
1982-03-04 14:30:00 UTC,2445033.104167,28.7317,-95.2428,0215,4.00,0.00,4.0000,90.0000
1982-03-04 15:00:00 UTC,2445033.125000,28.7317,-95.2428,0215,3.00,-0.05,3.0000,91.0000
1982-03-04 15:30:00 UTC,2445033.145833,28.7317,-95.2428,0215,2.87,0.88,3.0000,73.0000
1982-03-04 16:00:00 UTC,2445033.166667,28.7317,-95.2428,0215,3.63,1.69,4.0000,65.0000
1982-03-04 16:30:00 UTC,2445033.187500,28.7317,-95.2428,0215,4.73,1.63,5.0000,71.0000
1982-03-04 17:00:00 UTC,2445033.208333,28.7317,-95.2428,0215,4.97,0.52,5.0000,84.0000
1982-03-04 17:30:00 UTC,2445033.229167,28.7317,-95.2428,0215,5.87,-1.25,6.0000,102.0000
1982-03-04 18:00:00 UTC,2445033.250000,28.7317,-95.2428,0215,4.70,-1.71,5.0000,110.0000
1982-03-04 18:30:00 UTC,2445033.270833,28.7317,-95.2428,0215,4.96,0.61,5.0000,83.0000
1982-03-04 19:00:00 UTC,2445033.291667,28.7317,-95.2428,0215,6.06,3.50,7.0000,60.0000
1982-03-04 19:30:00 UTC,2445033.312500,28.7317,-95.2428,0215,6.29,3.07,7.0000,64.0000
1982-03-04 20:00:00 UTC,2445033.333333,28.7317,-95.2428,0215,5.93,0.94,6.0000,81.0000
1982-03-04 20:30:00 UTC,2445033.354167,28.7317,-95.2428,0215,4.87,-1.12,5.0000,103.0000
1982-03-04 21:00:00 UTC,2445033.375000,28.7317,-95.2428,0215,3.35,-2.18,4.0000,123.0000
1982-03-04 21:30:00 UTC,2445033.395833,28.7317,-95.2428,0215,4.05,-2.94,5.0000,126.0000
1982-03-04 22:00:00 UTC,2445033.416667,28.7317,-95.2428,0215,5.44,-2.54,6.0000,115.0000
1982-03-04 22:30:00 UTC,2445033.437500,28.7317,-95.2428,0215,5.77,-1.65,6.0000,106.0000
1982-03-04 23:00:00 UTC,2445033.458333,28.7317,-95.2428,0215,4.87,-1.12,5.0000,103.0000
1982-03-04 23:30:00 UTC,2445033.479167,28.7317,-95.2428,0215,3.73,-1.43,4.0000,111.0000
1982-03-05 00:00:00 UTC,2445033.500000,28.7317,-95.2428,0215,3.06,-2.57,4.0000,130.0000
1982-03-05 00:30:00 UTC,2445033.520833,28.7317,-95.2428,0215,2.24,-3.32,4.0000,146.0000
1982-03-05 01:00:00 UTC,2445033.541667,28.7317,-95.2428,0215,0.97,-3.88,4.0000,166.0000
1982-03-05 01:30:00 UTC,2445033.562500,28.7317,-95.2428,0215,0.21,-3.99,4.0000,177.0000
1982-03-05 02:00:00 UTC,2445033.583333,28.7317,-95.2428,0215,0.62,-2.93,3.0000,168.0000
1982-03-05 02:30:00 UTC,2445033.604167,28.7317,-95.2428,0215,0.97,-0.26,1.0000,105.0000
1982-03-05 03:00:00 UTC,2445033.625000,28.7317,-95.2428,0215,2.46,1.72,3.0000,55.0000
1982-03-05 03:30:00 UTC,2445033.645833,28.7317,-95.2428,0215,3.65,1.63,4.0000,66.0000
1982-03-05 04:00:00 UTC,2445033.666667,28.7317,-95.2428,0215,3.96,-0.56,4.0000,98.0000
1982-03-05 04:30:00 UTC,2445033.687500,28.7317,-95.2428,0215,2.65,-4.24,5.0000,148.0000
1982-03-05 05:00:00 UTC,2445033.708333,28.7317,-95.2428,0215,0.21,-6.00,6.0000,178.0000
1982-03-05 05:30:00 UTC,2445033.729167,28.7317,-95.2428,0215,-0.85,-6.95,7.0000,187.0000
1982-03-05 06:00:00 UTC,2445033.750000,28.7317,-95.2428,0215,-1.25,-8.91,9.0000,188.0000
1982-03-05 06:30:00 UTC,2445033.770833,28.7317,-95.2428,0215,-1.88,-11.85,12.0000,189.0000
1982-03-05 07:00:00 UTC,2445033.791667,28.7317,-95.2428,0215,-2.29,-11.78,12.0000,191.0000
1982-03-05 07:30:00 UTC,2445033.812500,28.7317,-95.2428,0215,-2.08,-9.78,10.0000,192.0000
1982-03-05 08:00:00 UTC,2445033.833333,28.7317,-95.2428,0215,-1.05,-9.95,10.0000,186.0000
1982-03-05 08:30:00 UTC,2445033.854167,28.7317,-95.2428,0215,-0.58,-10.98,11.0000,183.0000
1982-03-05 09:00:00 UTC,2445033.875000,28.7317,-95.2428,0215,-1.58,-12.90,13.0000,187.0000
1982-03-05 09:30:00 UTC,2445033.895833,28.7317,-95.2428,0215,-3.37,-14.62,15.0000,193.0000
1982-03-05 10:00:00 UTC,2445033.916667,28.7317,-95.2428,0215,-4.13,-14.42,15.0000,196.0000
1982-03-05 10:30:00 UTC,2445033.937500,28.7317,-95.2428,0215,-3.62,-13.52,14.0000,195.0000
1982-03-05 11:00:00 UTC,2445033.958333,28.7317,-95.2428,0215,-3.15,-13.64,14.0000,193.0000
1982-03-05 11:30:00 UTC,2445033.979167,28.7317,-95.2428,0215,-2.90,-11.64,12.0000,194.0000
1982-03-05 12:00:00 UTC,2445034.000000,28.7317,-95.2428,0215,-2.92,-9.56,10.0000,197.0000
1982-03-05 12:30:00 UTC,2445034.020833,28.7317,-95.2428,0215,-2.87,-7.47,8.0000,201.0000
1982-03-05 13:00:00 UTC,2445034.041667,28.7317,-95.2428,0215,-2.34,-5.52,6.0000,203.0000
1982-03-05 13:30:00 UTC,2445034.062500,28.7317,-95.2428,0215,-2.03,-4.57,5.0000,204.0000
1982-03-05 14:00:00 UTC,2445034.083333,28.7317,-95.2428,0215,-1.55,-4.76,5.0000,198.0000
1982-03-05 14:30:00 UTC,2445034.104167,28.7317,-95.2428,0215,-0.70,-4.95,5.0000,188.0000
1982-03-05 15:00:00 UTC,2445034.125000,28.7317,-95.2428,0215,-0.07,-4.00,4.0000,181.0000
1982-03-05 15:30:00 UTC,2445034.145833,28.7317,-95.2428,0215,0.78,-4.94,5.0000,171.0000
1982-03-05 16:00:00 UTC,2445034.166667,28.7317,-95.2428,0215,1.87,-4.64,5.0000,158.0000
1982-03-05 16:30:00 UTC,2445034.187500,28.7317,-95.2428,0215,1.55,-4.76,5.0000,162.0000
1982-03-05 17:00:00 UTC,2445034.208333,28.7317,-95.2428,0215,0.84,-5.94,6.0000,172.0000
1982-03-05 17:30:00 UTC,2445034.229167,28.7317,-95.2428,0215,0.84,-5.94,6.0000,172.0000
1982-03-05 18:00:00 UTC,2445034.250000,28.7317,-95.2428,0215,0.73,-6.96,7.0000,174.0000
1982-03-05 18:30:00 UTC,2445034.270833,28.7317,-95.2428,0215,0.00,-9.00,9.0000,180.0000
1982-03-05 19:00:00 UTC,2445034.291667,28.7317,-95.2428,0215,-0.87,-9.96,10.0000,185.0000
1982-03-05 19:30:00 UTC,2445034.312500,28.7317,-95.2428,0215,-1.22,-9.93,10.0000,187.0000
1982-03-05 20:00:00 UTC,2445034.333333,28.7317,-95.2428,0215,-0.87,-9.96,10.0000,185.0000
1982-03-05 20:30:00 UTC,2445034.354167,28.7317,-95.2428,0215,-0.52,-9.99,10.0000,183.0000
1982-03-05 21:00:00 UTC,2445034.375000,28.7317,-95.2428,0215,-0.35,-9.99,10.0000,182.0000
1982-03-05 21:30:00 UTC,2445034.395833,28.7317,-95.2428,0215,-0.17,-10.00,10.0000,181.0000
1982-03-05 22:00:00 UTC,2445034.416667,28.7317,-95.2428,0215,-0.77,-10.97,11.0000,184.0000
1982-03-05 22:30:00 UTC,2445034.437500,28.7317,-95.2428,0215,-1.25,-11.93,12.0000,186.0000
1982-03-05 23:00:00 UTC,2445034.458333,28.7317,-95.2428,0215,-1.05,-11.95,12.0000,185.0000
1982-03-05 23:30:00 UTC,2445034.479167,28.7317,-95.2428,0215,-0.58,-10.98,11.0000,183.0000
1982-03-06 00:00:00 UTC,2445034.500000,28.7317,-95.2428,0215,0.00,-11.00,11.0000,180.0000
1982-03-06 00:30:00 UTC,2445034.520833,28.7317,-95.2428,0215,0.58,-10.98,11.0000,177.0000
1982-03-06 01:00:00 UTC,2445034.541667,28.7317,-95.2428,0215,0.58,-10.98,11.0000,177.0000
1982-03-06 01:30:00 UTC,2445034.562500,28.7317,-95.2428,0215,0.70,-9.98,10.0000,176.0000
1982-03-06 02:00:00 UTC,2445034.583333,28.7317,-95.2428,0215,1.56,-9.88,10.0000,171.0000
1982-03-06 02:30:00 UTC,2445034.604167,28.7317,-95.2428,0215,1.56,-9.88,10.0000,171.0000
1982-03-06 03:00:00 UTC,2445034.625000,28.7317,-95.2428,0215,0.96,-10.96,11.0000,175.0000
1982-03-06 03:30:00 UTC,2445034.645833,28.7317,-95.2428,0215,0.00,-12.00,12.0000,180.0000
1982-03-06 04:00:00 UTC,2445034.666667,28.7317,-95.2428,0215,-0.21,-12.00,12.0000,181.0000
1982-03-06 04:30:00 UTC,2445034.687500,28.7317,-95.2428,0215,-0.45,-12.99,13.0000,182.0000
1982-03-06 05:00:00 UTC,2445034.708333,28.7317,-95.2428,0215,-0.68,-12.98,13.0000,183.0000
1982-03-06 05:30:00 UTC,2445034.729167,28.7317,-95.2428,0215,-0.91,-12.97,13.0000,184.0000
1982-03-06 06:00:00 UTC,2445034.750000,28.7317,-95.2428,0215,-0.91,-12.97,13.0000,184.0000
1982-03-06 06:30:00 UTC,2445034.770833,28.7317,-95.2428,0215,-0.98,-13.97,14.0000,184.0000
1982-03-06 07:00:00 UTC,2445034.791667,28.7317,-95.2428,0215,-1.31,-14.94,15.0000,185.0000
1982-03-06 07:30:00 UTC,2445034.812500,28.7317,-95.2428,0215,0.26,-15.00,15.0000,179.0000
1982-03-06 08:00:00 UTC,2445034.833333,28.7317,-95.2428,0215,1.57,-14.92,15.0000,174.0000
1982-03-06 08:30:00 UTC,2445034.854167,28.7317,-95.2428,0215,1.31,-14.94,15.0000,175.0000
1982-03-06 09:00:00 UTC,2445034.875000,28.7317,-95.2428,0215,1.67,-15.91,16.0000,174.0000
1982-03-06 09:30:00 UTC,2445034.895833,28.7317,-95.2428,0215,1.83,-14.89,15.0000,173.0000
1982-03-06 10:00:00 UTC,2445034.916667,28.7317,-95.2428,0215,1.39,-15.94,16.0000,175.0000
1982-03-06 10:30:00 UTC,2445034.937500,28.7317,-95.2428,0215,1.19,-16.96,17.0000,176.0000
1982-03-06 11:00:00 UTC,2445034.958333,28.7317,-95.2428,0215,1.19,-16.96,17.0000,176.0000
1982-03-06 11:30:00 UTC,2445034.979167,28.7317,-95.2428,0215,1.31,-14.94,15.0000,175.0000
1982-03-06 12:00:00 UTC,2445035.000000,28.7317,-95.2428,0215,1.95,-13.86,14.0000,172.0000
1982-03-06 12:30:00 UTC,2445035.020833,28.7317,-95.2428,0215,2.43,-13.79,14.0000,170.0000
1982-03-06 13:00:00 UTC,2445035.041667,28.7317,-95.2428,0215,2.43,-13.79,14.0000,170.0000
1982-03-06 13:30:00 UTC,2445035.062500,28.7317,-95.2428,0215,1.81,-12.87,13.0000,172.0000
1982-03-06 14:00:00 UTC,2445035.083333,28.7317,-95.2428,0215,1.88,-11.85,12.0000,171.0000
1982-03-06 14:30:00 UTC,2445035.104167,28.7317,-95.2428,0215,1.91,-10.83,11.0000,170.0000
1982-03-06 15:00:00 UTC,2445035.125000,28.7317,-95.2428,0215,1.22,-9.93,10.0000,173.0000
1982-03-06 15:30:00 UTC,2445035.145833,28.7317,-95.2428,0215,1.80,-7.79,8.0000,167.0000
1982-03-06 16:00:00 UTC,2445035.166667,28.7317,-95.2428,0215,3.61,-6.00,7.0000,149.0000
1982-03-06 16:30:00 UTC,2445035.187500,28.7317,-95.2428,0215,4.68,-5.20,7.0000,138.0000
1982-03-06 17:00:00 UTC,2445035.208333,28.7317,-95.2428,0215,3.81,-5.87,7.0000,147.0000
1982-03-06 17:30:00 UTC,2445035.229167,28.7317,-95.2428,0215,2.25,-5.56,6.0000,158.0000
1982-03-06 18:00:00 UTC,2445035.250000,28.7317,-95.2428,0215,1.50,-3.71,4.0000,158.0000
1982-03-06 18:30:00 UTC,2445035.270833,28.7317,-95.2428,0215,2.41,-3.19,4.0000,143.0000
1982-03-06 19:00:00 UTC,2445035.291667,28.7317,-95.2428,0215,2.97,-2.68,4.0000,132.0000
1982-03-06 19:30:00 UTC,2445035.312500,28.7317,-95.2428,0215,2.43,-1.76,3.0000,126.0000
1982-03-06 20:00:00 UTC,2445035.333333,28.7317,-95.2428,0215,3.28,-2.29,4.0000,125.0000
1982-03-06 20:30:00 UTC,2445035.354167,28.7317,-95.2428,0215,2.54,-1.59,3.0000,122.0000
1982-03-06 21:00:00 UTC,2445035.375000,28.7317,-95.2428,0215,2.05,-2.19,3.0000,137.0000
1982-03-06 21:30:00 UTC,2445035.395833,28.7317,-95.2428,0215,3.15,-3.89,5.0000,141.0000
1982-03-06 22:00:00 UTC,2445035.416667,28.7317,-95.2428,0215,3.35,-3.72,5.0000,138.0000
1982-03-06 22:30:00 UTC,2445035.437500,28.7317,-95.2428,0215,2.43,-1.76,3.0000,126.0000
1982-03-06 23:00:00 UTC,2445035.458333,28.7317,-95.2428,0215,1.99,0.21,2.0000,84.0000
1982-03-06 23:30:00 UTC,2445035.479167,28.7317,-95.2428,0215,3.00,-0.05,3.0000,91.0000
1982-03-07 00:00:00 UTC,2445035.500000,28.7317,-95.2428,0215,4.41,-2.35,5.0000,118.0000
1982-03-07 00:30:00 UTC,2445035.520833,28.7317,-95.2428,0215,5.67,-1.95,6.0000,109.0000
1982-03-07 01:00:00 UTC,2445035.541667,28.7317,-95.2428,0215,6.96,0.73,7.0000,84.0000
1982-03-07 01:30:00 UTC,2445035.562500,28.7317,-95.2428,0215,8.51,2.93,9.0000,71.0000
1982-03-07 02:00:00 UTC,2445035.583333,28.7317,-95.2428,0215,7.76,1.94,8.0000,76.0000
1982-03-07 02:30:00 UTC,2445035.604167,28.7317,-95.2428,0215,4.85,-1.21,5.0000,104.0000
1982-03-07 03:00:00 UTC,2445035.625000,28.7317,-95.2428,0215,1.03,-1.71,2.0000,149.0000
1982-03-07 03:30:00 UTC,2445035.645833,28.7317,-95.2428,0215,0.00,-0.00,0.0000,137.0000
1982-03-07 04:00:00 UTC,2445035.666667,28.7317,-95.2428,0215,0.94,-0.34,1.0000,110.0000
1982-03-07 04:30:00 UTC,2445035.687500,28.7317,-95.2428,0215,2.88,-2.78,4.0000,134.0000
1982-03-07 05:00:00 UTC,2445035.708333,28.7317,-95.2428,0215,3.77,-3.28,5.0000,131.0000
1982-03-07 05:30:00 UTC,2445035.729167,28.7317,-95.2428,0215,4.10,-2.87,5.0000,125.0000
1982-03-07 06:00:00 UTC,2445035.750000,28.7317,-95.2428,0215,5.94,-3.71,7.0000,122.0000
1982-03-07 06:30:00 UTC,2445035.770833,28.7317,-95.2428,0215,6.71,-4.36,8.0000,123.0000
1982-03-07 07:00:00 UTC,2445035.791667,28.7317,-95.2428,0215,5.56,-5.75,8.0000,136.0000
1982-03-07 07:30:00 UTC,2445035.812500,28.7317,-95.2428,0215,3.38,-7.25,8.0000,155.0000
1982-03-07 08:00:00 UTC,2445035.833333,28.7317,-95.2428,0215,2.21,-7.69,8.0000,164.0000
1982-03-07 08:30:00 UTC,2445035.854167,28.7317,-95.2428,0215,0.78,-8.97,9.0000,175.0000
1982-03-07 09:00:00 UTC,2445035.875000,28.7317,-95.2428,0215,-1.53,-10.89,11.0000,188.0000
1982-03-07 09:30:00 UTC,2445035.895833,28.7317,-95.2428,0215,-2.10,-10.80,11.0000,191.0000
1982-03-07 10:00:00 UTC,2445035.916667,28.7317,-95.2428,0215,-1.74,-9.85,10.0000,190.0000
1982-03-07 10:30:00 UTC,2445035.937500,28.7317,-95.2428,0215,-3.26,-9.46,10.0000,199.0000
1982-03-07 11:00:00 UTC,2445035.958333,28.7317,-95.2428,0215,-6.02,-6.69,9.0000,222.0000
1982-03-07 11:30:00 UTC,2445035.979167,28.7317,-95.2428,0215,-7.06,-3.76,8.0000,242.0000
1982-03-07 12:00:00 UTC,2445036.000000,28.7317,-95.2428,0215,-4.15,-2.80,5.0000,236.0000
1982-03-07 12:30:00 UTC,2445036.020833,28.7317,-95.2428,0215,-1.87,-4.64,5.0000,202.0000
1982-03-07 13:00:00 UTC,2445036.041667,28.7317,-95.2428,0215,-2.91,-5.25,6.0000,209.0000
1982-03-07 13:30:00 UTC,2445036.062500,28.7317,-95.2428,0215,-3.94,-4.53,6.0000,221.0000
1982-03-07 14:00:00 UTC,2445036.083333,28.7317,-95.2428,0215,-2.50,-4.33,5.0000,210.0000
1982-03-07 14:30:00 UTC,2445036.104167,28.7317,-95.2428,0215,-0.97,-3.88,4.0000,194.0000
1982-03-07 15:00:00 UTC,2445036.125000,28.7317,-95.2428,0215,-1.94,-3.50,4.0000,209.0000
1982-03-07 15:30:00 UTC,2445036.145833,28.7317,-95.2428,0215,-4.81,-1.38,5.0000,254.0000
1982-03-07 16:00:00 UTC,2445036.166667,28.7317,-95.2428,0215,-6.96,0.73,7.0000,276.0000
1982-03-07 16:30:00 UTC,2445036.187500,28.7317,-95.2428,0215,-7.79,1.80,8.0000,283.0000
1982-03-07 17:00:00 UTC,2445036.208333,28.7317,-95.2428,0215,-6.58,2.39,7.0000,290.0000
1982-03-07 17:30:00 UTC,2445036.229167,28.7317,-95.2428,0215,-6.62,2.28,7.0000,289.0000
1982-03-07 18:00:00 UTC,2445036.250000,28.7317,-95.2428,0215,-6.99,0.37,7.0000,273.0000
1982-03-07 18:30:00 UTC,2445036.270833,28.7317,-95.2428,0215,-9.85,-1.74,10.0000,260.0000
1982-03-07 19:00:00 UTC,2445036.291667,28.7317,-95.2428,0215,-11.64,-2.90,12.0000,256.0000
1982-03-07 19:30:00 UTC,2445036.312500,28.7317,-95.2428,0215,-12.61,-3.15,13.0000,256.0000
1982-03-07 20:00:00 UTC,2445036.333333,28.7317,-95.2428,0215,-11.69,-2.70,12.0000,257.0000
1982-03-07 20:30:00 UTC,2445036.354167,28.7317,-95.2428,0215,-11.64,-2.90,12.0000,256.0000
1982-03-07 21:00:00 UTC,2445036.375000,28.7317,-95.2428,0215,-11.54,-3.31,12.0000,254.0000
1982-03-07 21:30:00 UTC,2445036.395833,28.7317,-95.2428,0215,-11.64,-2.90,12.0000,256.0000
1982-03-07 22:00:00 UTC,2445036.416667,28.7317,-95.2428,0215,-10.89,-1.53,11.0000,262.0000
1982-03-07 22:30:00 UTC,2445036.437500,28.7317,-95.2428,0215,-10.00,-0.17,10.0000,269.0000
1982-03-07 23:00:00 UTC,2445036.458333,28.7317,-95.2428,0215,-8.99,0.47,9.0000,273.0000
1982-03-07 23:30:00 UTC,2445036.479167,28.7317,-95.2428,0215,-8.99,-0.47,9.0000,267.0000
1982-03-08 00:00:00 UTC,2445036.500000,28.7317,-95.2428,0215,-8.97,-0.78,9.0000,265.0000
1982-03-08 00:30:00 UTC,2445036.520833,28.7317,-95.2428,0215,-8.73,2.18,9.0000,284.0000
1982-03-08 01:00:00 UTC,2445036.541667,28.7317,-95.2428,0215,-8.19,5.74,10.0000,305.0000
1982-03-08 01:30:00 UTC,2445036.562500,28.7317,-95.2428,0215,-6.79,5.90,9.0000,311.0000
1982-03-08 02:00:00 UTC,2445036.583333,28.7317,-95.2428,0215,-6.22,5.03,8.0000,309.0000
1982-03-08 02:30:00 UTC,2445036.604167,28.7317,-95.2428,0215,-5.20,4.68,7.0000,312.0000
1982-03-08 03:00:00 UTC,2445036.625000,28.7317,-95.2428,0215,-4.81,6.39,8.0000,323.0000
1982-03-08 03:30:00 UTC,2445036.645833,28.7317,-95.2428,0215,-4.00,6.93,8.0000,330.0000
1982-03-08 04:00:00 UTC,2445036.666667,28.7317,-95.2428,0215,-3.39,6.12,7.0000,331.0000
1982-03-08 04:30:00 UTC,2445036.687500,28.7317,-95.2428,0215,-3.29,6.18,7.0000,332.0000
1982-03-08 05:00:00 UTC,2445036.708333,28.7317,-95.2428,0215,-2.82,5.30,6.0000,332.0000
1982-03-08 05:30:00 UTC,2445036.729167,28.7317,-95.2428,0215,-2.94,4.05,5.0000,324.0000
1982-03-08 06:00:00 UTC,2445036.750000,28.7317,-95.2428,0215,-3.72,3.35,5.0000,312.0000
1982-03-08 06:30:00 UTC,2445036.770833,28.7317,-95.2428,0215,-4.24,2.65,5.0000,302.0000
1982-03-08 07:00:00 UTC,2445036.791667,28.7317,-95.2428,0215,-3.86,1.04,4.0000,285.0000
1982-03-08 07:30:00 UTC,2445036.812500,28.7317,-95.2428,0215,-3.91,-0.83,4.0000,258.0000
1982-03-08 08:00:00 UTC,2445036.833333,28.7317,-95.2428,0215,-6.44,-2.74,7.0000,247.0000
1982-03-08 08:30:00 UTC,2445036.854167,28.7317,-95.2428,0215,-8.66,-5.00,10.0000,240.0000
1982-03-08 09:00:00 UTC,2445036.875000,28.7317,-95.2428,0215,-8.55,-6.92,11.0000,231.0000